FW6649 Weather Reports


time (UTC)temp
C
wind
direction
speed
KPH
gust
KPH
rain 1hr
cm
rain 24hr
cm
rain mn
cm
humidity
%
barometer
mb
20260502163045 11 316 6.4 9.7 0.00 0.00 0.00 56 1013.9
20260502161537 11 300 6.4 16.1 0.00 0.00 0.00 56 1014.1
20260502151612 11 355 6.4 12.9 0.00 0.00 0.00 57 1013.7
20260502123037 11 290 3.2 6.4 0.00 0.00 0.00 67 1013.5
20260502121545 11 309 3.2 6.4 0.00 0.00 0.00 66 1013.6
20260502114541 11 310 3.2 6.4 0.00 0.00 0.00 66 1013.3
20260502113036 11 326 3.2 11.3 0.00 0.00 0.00 66 1013.2
20260502111534 11 0 1.6 4.8 0.00 0.00 0.00 69 1013.1
20260502110032 11 0 0.0 4.8 0.00 0.00 0.00 68 1012.9
20260502104537 11 0 0.0 8.0 0.00 0.00 0.00 68 1012.9
20260502103043 11 307 0.0 9.7 0.00 0.00 0.00 69 1012.9
20260502101544 11 293 3.2 8.0 0.00 0.00 0.00 69 1013.0
20260502091533 11 318 4.8 12.9 0.00 0.00 0.00 72 1012.6
20260502070037 10 0 0.0 0.0 0.00 0.00 0.00 90 1011.9
20260502064535 10 0 0.0 0.0 0.00 0.00 0.00 90 1011.9
20260502063034 10 0 0.0 3.2 0.00 0.00 0.00 90 1012.1
20260502061540 10 0 0.0 0.0 0.00 0.00 0.00 89 1012.1
20260502060038 10 0 0.0 3.2 0.00 0.00 0.00 89 1012.1
20260502054537 10 0 0.0 0.0 0.00 0.00 0.00 88 1012.1
20260502053036 10 0 0.0 0.0 0.00 0.00 0.00 88 1012.2
20260502051543 10 0 0.0 0.0 0.00 0.00 0.00 87 1012.2
20260502050040 10 0 0.0 0.0 0.00 0.00 0.00 86 1012.2
20260502044539 11 0 0.0 9.7 0.00 0.00 0.00 86 1012.6
20260502043037 11 0 0.0 0.0 0.00 0.00 0.00 85 1012.4
20260502041559 11 154 1.6 3.2 0.00 0.00 0.00 84 1012.2
20260502040041 11 0 0.0 3.2 0.00 0.00 0.00 84 1012.3
20260502034538 11 0 0.0 8.0 0.00 0.00 0.00 83 1012.4
20260502033049 11 164 3.2 8.0 0.00 0.00 0.00 82 1012.4
20260502031535 11 169 3.2 9.7 0.00 0.00 0.00 81 1012.2
20260502030038 12 138 3.2 9.7 0.00 0.00 0.00 80 1012.3
20260502024538 12 131 4.8 12.9 0.00 0.00 0.00 79 1012.3
20260502023035 12 163 3.2 9.7 0.00 0.00 0.00 77 1012.3
20260502021532 12 154 4.8 11.3 0.00 0.00 0.00 76 1012.1
20260502020038 12 151 3.2 16.1 0.00 0.00 0.00 74 1012.0
20260502014537 13 144 4.8 17.7 0.00 0.00 0.00 72 1011.9
20260502013038 13 161 9.7 16.1 0.00 0.00 0.00 70 1011.9
20260502011536 13 167 4.8 14.5 0.00 0.00 0.00 69 1012.0
20260502010037 14 126 4.8 17.7 0.00 0.00 0.00 69 1011.6
20260502004535 14 155 6.4 17.7 0.00 0.00 0.00 68 1011.4
20260502003037 15 139 4.8 17.7 0.00 0.00 0.00 66 1011.1
20260502001538 15 149 6.4 14.5 0.00 0.00 0.00 64 1010.8
20260502000037 15 134 6.4 14.5 0.00 0.00 0.00 62 1010.4
20260501234534 16 128 6.4 19.3 0.00 0.00 0.00 59 1010.6
20260501233040 16 124 4.8 12.9 0.00 0.00 0.00 57 1010.6
20260501231553 17 108 8.0 17.7 0.00 0.00 0.00 55 1010.4
20260501230039 17 111 4.8 16.1 0.00 0.00 0.00 53 1010.5
20260501224537 18 143 6.4 14.5 0.00 0.00 0.00 51 1010.4
20260501223102 18 157 6.4 14.5 0.00 0.00 0.00 50 1010.6
20260501221532 18 126 4.8 12.9 0.00 0.00 0.00 50 1010.7
20260501220039 19 213 8.0 12.9 0.00 0.00 0.00 47 1010.9
20260501214538 18 141 9.7 16.1 0.00 0.00 0.00 47 1010.9
20260501213037 18 171 4.8 16.1 0.00 0.00 0.00 47 1011.0
20260501211534 18 143 11.3 24.1 0.00 0.00 0.00 45 1011.1
20260501210035 19 176 9.7 19.3 0.00 0.00 0.00 45 1011.2
20260501204532 18 130 9.7 17.7 0.00 0.00 0.00 45 1011.4
20260501203038 18 138 9.7 16.1 0.00 0.00 0.00 44 1011.4
20260501201536 18 190 9.7 20.9 0.00 0.00 0.00 44 1011.7
20260501200035 19 215 6.4 12.9 0.00 0.00 0.00 43 1011.8
20260501194538 18 167 6.4 17.7 0.00 0.00 0.00 45 1012.3
20260501193037 19 165 8.0 19.3 0.00 0.00 0.00 43 1012.5
20260501191537 18 176 9.7 25.7 0.00 0.00 0.00 41 1012.7
20260501190035 18 146 6.4 19.3 0.00 0.00 0.00 40 1013.0
20260501184537 18 213 3.2 16.1 0.00 0.00 0.00 43 1013.0
20260501183033 17 169 4.8 16.1 0.00 0.00 0.00 44 1013.2
20260501181538 17 185 6.4 14.5 0.00 0.00 0.00 45 1013.5
20260501180043 18 163 4.8 11.3 0.00 0.00 0.00 45 1013.6
20260501174554 17 36 3.2 12.9 0.00 0.00 0.00 46 1014.0
20260501173039 16 240 4.8 19.3 0.00 0.00 0.00 46 1014.2